Time,TemperatureF,DewpointF,PressureIn,WindDirection,WindDirectionDegrees,WindSpeedMPH,WindSpeedGustMPH,Humidity,HourlyPrecipIn,Conditions,Clouds,dailyrainin,SolarRadiationWatts/m^2,SoftwareType,DateUTC
2013-01-22 00:00:00,52.5,51.0,30.15,NE,56,0.0,-999.0,93,-99.99,,,0.01,0,weatherlink.com 1.10,2013-01-22 06:00:00,
2013-01-22 00:15:00,52.4,51.0,30.14,NE,56,0.0,-999.0,94,-99.99,,,0.01,0,weatherlink.com 1.10,2013-01-22 06:15:00,
2013-01-22 00:30:00,52.1,51.0,30.14,NE,56,0.0,-999.0,94,-99.99,,,0.01,0,weatherlink.com 1.10,2013-01-22 06:30:00,
2013-01-22 00:45:00,51.4,50.0,30.13,NE,56,0.0,-999.0,94,-99.99,,,0.01,0,weatherlink.com 1.10,2013-01-22 06:45:00,
2013-01-22 01:00:00,51.3,50.0,30.13,NE,56,0.0,-999.0,94,-99.99,,,0.01,0,weatherlink.com 1.10,2013-01-22 07:00:00,
2013-01-22 01:15:00,50.9,49.0,30.13,NE,56,0.0,-999.0,94,-99.99,,,0.01,0,weatherlink.com 1.10,2013-01-22 07:15:00,
2013-01-22 01:30:00,51.1,50.0,30.12,NE,56,0.0,-999.0,95,-99.99,,,0.01,0,weatherlink.com 1.10,2013-01-22 07:30:00,
2013-01-22 01:45:00,51.6,50.0,30.12,NE,56,0.0,-999.0,95,-99.99,,,0.01,0,weatherlink.com 1.10,2013-01-22 07:45:00,
2013-01-22 02:00:00,51.8,51.0,30.12,NE,56,0.0,-999.0,95,-99.99,,,0.01,0,weatherlink.com 1.10,2013-01-22 08:00:00,
2013-01-22 02:15:00,52.0,51.0,30.12,NE,56,0.0,-999.0,96,-99.99,,,0.01,0,weatherlink.com 1.10,2013-01-22 08:15:00,
2013-01-22 02:30:00,52.3,51.0,30.12,NE,56,0.0,-999.0,96,-99.99,,,0.01,0,weatherlink.com 1.10,2013-01-22 08:30:00,
2013-01-22 02:45:00,52.3,51.0,30.13,NE,56,0.0,-999.0,96,-99.99,,,0.01,0,weatherlink.com 1.10,2013-01-22 08:45:00,
2013-01-22 03:00:00,52.2,51.0,30.13,NE,56,0.0,-999.0,95,-99.99,,,0.01,0,weatherlink.com 1.10,2013-01-22 09:00:00,
2013-01-22 03:15:00,51.9,51.0,30.13,NE,56,0.0,-999.0,95,-99.99,,,0.01,0,weatherlink.com 1.10,2013-01-22 09:15:00,
2013-01-22 03:30:00,51.5,50.0,30.13,NE,56,0.0,-999.0,95,-99.99,,,0.01,0,weatherlink.com 1.10,2013-01-22 09:30:00,
2013-01-22 03:45:00,51.5,50.0,30.14,NE,56,0.0,-999.0,96,-99.99,,,0.00,0,weatherlink.com 1.10,2013-01-22 09:45:00,
2013-01-22 04:15:00,51.9,51.0,30.14,NE,56,0.0,-999.0,96,-99.99,,,0.00,0,weatherlink.com 1.10,2013-01-22 10:15:00,
2013-01-22 04:30:00,51.9,51.0,30.14,NE,56,0.0,-999.0,96,-99.99,,,0.00,0,weatherlink.com 1.10,2013-01-22 10:30:00,
2013-01-22 04:45:00,51.5,50.0,30.14,NE,56,0.0,-999.0,96,-99.99,,,0.00,0,weatherlink.com 1.10,2013-01-22 10:45:00,
2013-01-22 05:00:00,51.2,50.0,30.15,NE,56,0.0,-999.0,96,-99.99,,,0.00,0,weatherlink.com 1.10,2013-01-22 11:00:00,
2013-01-22 05:15:00,50.8,50.0,30.16,NE,56,0.0,-999.0,96,-99.99,,,0.00,0,weatherlink.com 1.10,2013-01-22 11:15:00,
2013-01-22 05:30:00,50.8,50.0,30.16,NE,56,0.0,-999.0,96,-99.99,,,0.00,0,weatherlink.com 1.10,2013-01-22 11:30:00,
2013-01-22 05:45:00,50.6,50.0,30.16,NE,56,0.0,-999.0,96,-99.99,,,0.00,0,weatherlink.com 1.10,2013-01-22 11:45:00,
2013-01-22 06:16:00,50.6,50.0,30.17,NE,56,0.0,-999.0,96,-99.99,,,0.00,0,weatherlink.com 1.10,2013-01-22 12:16:00,
2013-01-22 06:31:00,51.1,50.0,30.18,NE,56,0.0,-999.0,96,-99.99,,,0.00,0,weatherlink.com 1.10,2013-01-22 12:31:00,
2013-01-22 06:46:00,51.6,51.0,30.18,NE,56,0.0,-999.0,97,-99.99,,,0.00,0,weatherlink.com 1.10,2013-01-22 12:46:00,
2013-01-22 07:03:00,51.7,51.0,30.19,NE,56,0.0,-999.0,96,-99.99,,,0.00,0,weatherlink.com 1.10,2013-01-22 13:03:00,
2013-01-22 07:16:00,51.8,51.0,30.19,NE,56,0.0,-999.0,96,-99.99,,,0.00,0,weatherlink.com 1.10,2013-01-22 13:16:00,
2013-01-22 07:31:00,52.5,52.0,30.19,NE,56,0.0,-999.0,97,-99.99,,,0.00,9,weatherlink.com 1.10,2013-01-22 13:31:00,
2013-01-22 07:46:00,52.2,51.0,30.20,NE,56,0.0,-999.0,97,-99.99,,,0.00,19,weatherlink.com 1.10,2013-01-22 13:46:00,
2013-01-22 08:31:00,55.9,55.0,30.21,NE,55,1.0,-999.0,97,-99.99,,,0.00,153,weatherlink.com 1.10,2013-01-22 14:31:00,
2013-01-22 08:46:00,57.5,57.0,30.22,NE,46,2.0,-999.0,97,-99.99,,,0.00,221,weatherlink.com 1.10,2013-01-22 14:46:00,
2013-01-22 09:01:00,58.7,58.0,30.22,ENE,57,2.0,-999.0,97,-99.99,,,0.00,239,weatherlink.com 1.10,2013-01-22 15:01:00,
2013-01-22 09:16:00,60.3,59.0,30.23,NE,55,4.0,-999.0,96,-99.99,,,0.00,309,weatherlink.com 1.10,2013-01-22 15:16:00,
2013-01-22 09:46:00,64.2,60.0,30.23,ENE,67,3.0,-999.0,85,-99.99,,,0.00,411,weatherlink.com 1.10,2013-01-22 15:46:00,
2013-01-22 10:01:00,65.9,60.0,30.24,ENE,60,4.0,-999.0,80,-99.99,,,0.00,461,weatherlink.com 1.10,2013-01-22 16:01:00,
2013-01-22 10:31:00,67.5,59.0,30.24,ENE,59,4.0,-999.0,74,-99.99,,,0.00,580,weatherlink.com 1.10,2013-01-22 16:31:00,
2013-01-22 10:47:00,68.3,59.0,30.24,NE,45,4.0,-999.0,73,-99.99,,,0.00,578,weatherlink.com 1.10,2013-01-22 16:47:00,
2013-01-22 11:02:00,69.4,57.0,30.24,ESE,108,9.0,-999.0,66,-99.99,,,0.00,613,weatherlink.com 1.10,2013-01-22 17:02:00,
2013-01-22 11:17:00,70.4,57.0,30.23,East,81,10.0,-999.0,62,-99.99,,,0.00,332,weatherlink.com 1.10,2013-01-22 17:17:00,
2013-01-22 11:32:00,69.8,57.0,30.23,ESE,109,9.0,-999.0,64,-99.99,,,0.00,543,weatherlink.com 1.10,2013-01-22 17:32:00,
2013-01-22 11:47:00,70.7,57.0,30.22,ESE,111,3.0,-999.0,62,-99.99,,,0.00,533,weatherlink.com 1.10,2013-01-22 17:47:00,
2013-01-22 12:03:00,71.0,56.0,30.22,ESE,111,3.0,-999.0,60,-99.99,,,0.00,793,weatherlink.com 1.10,2013-01-22 18:03:00,
2013-01-22 12:17:00,71.8,56.0,30.21,SE,138,5.0,-999.0,58,-99.99,,,0.00,694,weatherlink.com 1.10,2013-01-22 18:17:00,
2013-01-22 12:32:00,71.3,55.0,30.20,ENE,74,10.0,-999.0,57,-99.99,,,0.00,264,weatherlink.com 1.10,2013-01-22 18:32:00,
2013-01-22 12:47:00,70.3,55.0,30.19,East,98,2.0,-999.0,59,-99.99,,,0.00,346,weatherlink.com 1.10,2013-01-22 18:47:00,
2013-01-22 13:02:00,70.4,55.0,30.19,ESE,111,4.0,-999.0,58,-99.99,,,0.00,360,weatherlink.com 1.10,2013-01-22 19:02:00,
2013-01-22 13:17:00,71.0,55.0,30.18,East,81,3.0,-999.0,58,-99.99,,,0.00,555,weatherlink.com 1.10,2013-01-22 19:17:00,
2013-01-22 13:32:00,70.1,55.0,30.17,SE,141,3.0,-999.0,59,-99.99,,,0.00,283,weatherlink.com 1.10,2013-01-22 19:32:00,
2013-01-22 13:47:00,70.7,55.0,30.17,SSW,194,3.0,-999.0,58,-99.99,,,0.00,788,weatherlink.com 1.10,2013-01-22 19:47:00,
2013-01-22 14:02:00,71.3,55.0,30.17,East,92,5.0,-999.0,57,-99.99,,,0.00,589,weatherlink.com 1.10,2013-01-22 20:02:00,
2013-01-22 14:17:00,71.9,56.0,30.17,SE,130,3.0,-999.0,57,-99.99,,,0.00,661,weatherlink.com 1.10,2013-01-22 20:17:00,
2013-01-22 14:32:00,71.8,56.0,30.16,East,93,2.0,-999.0,57,-99.99,,,0.00,571,weatherlink.com 1.10,2013-01-22 20:32:00,
2013-01-22 14:47:00,71.1,55.0,30.16,SSE,163,5.0,-999.0,58,-99.99,,,0.00,496,weatherlink.com 1.10,2013-01-22 20:47:00,
2013-01-22 15:02:00,71.5,56.0,30.16,SE,137,9.0,-999.0,58,-99.99,,,0.00,533,weatherlink.com 1.10,2013-01-22 21:02:00,
2013-01-22 15:17:00,71.2,56.0,30.16,SE,140,3.0,-999.0,59,-99.99,,,0.00,408,weatherlink.com 1.10,2013-01-22 21:17:00,
2013-01-22 15:32:00,70.7,56.0,30.16,ESE,119,3.0,-999.0,59,-99.99,,,0.00,410,weatherlink.com 1.10,2013-01-22 21:32:00,
2013-01-22 15:48:00,70.2,56.0,30.16,SE,136,5.0,-999.0,60,-99.99,,,0.00,225,weatherlink.com 1.10,2013-01-22 21:48:00,
2013-01-22 16:02:00,69.5,55.0,30.16,ESE,121,5.0,-999.0,61,-99.99,,,0.00,197,weatherlink.com 1.10,2013-01-22 22:02:00,
2013-01-22 16:18:00,69.2,56.0,30.16,East,84,6.0,-999.0,63,-99.99,,,0.00,251,weatherlink.com 1.10,2013-01-22 22:18:00,
2013-01-22 16:32:00,69.1,57.0,30.16,ESE,104,5.0,-999.0,65,-99.99,,,0.00,195,weatherlink.com 1.10,2013-01-22 22:32:00,
2013-01-22 16:47:00,68.4,57.0,30.16,East,96,4.0,-999.0,66,-99.99,,,0.00,156,weatherlink.com 1.10,2013-01-22 22:47:00,
2013-01-22 17:02:00,67.9,56.0,30.16,East,100,4.0,-999.0,66,-99.99,,,0.00,105,weatherlink.com 1.10,2013-01-22 23:02:00,
2013-01-22 17:17:00,67.4,57.0,30.16,ENE,73,2.0,-999.0,70,-99.99,,,0.00,70,weatherlink.com 1.10,2013-01-22 23:17:00,
2013-01-22 17:32:00,66.7,58.0,30.16,ENE,63,4.0,-999.0,73,-99.99,,,0.00,51,weatherlink.com 1.10,2013-01-22 23:32:00,
2013-01-22 17:47:00,65.9,59.0,30.16,ENE,76,2.0,-999.0,78,-99.99,,,0.00,18,weatherlink.com 1.10,2013-01-22 23:47:00,
2013-01-22 18:02:00,64.8,59.0,30.16,ENE,63,2.0,-999.0,81,-99.99,,,0.00,0,weatherlink.com 1.10,2013-01-23 00:02:00,
2013-01-22 18:17:00,64.0,59.0,30.16,ENE,63,5.0,-999.0,84,-99.99,,,0.00,0,weatherlink.com 1.10,2013-01-23 00:17:00,
2013-01-22 18:32:00,63.3,59.0,30.17,ENE,60,4.0,-999.0,86,-99.99,,,0.00,0,weatherlink.com 1.10,2013-01-23 00:32:00,
2013-01-22 18:47:00,62.9,59.0,30.17,ENE,76,4.0,-999.0,88,-99.99,,,0.00,0,weatherlink.com 1.10,2013-01-23 00:47:00,
2013-01-22 19:02:00,62.3,59.0,30.17,NE,54,2.0,-999.0,89,-99.99,,,0.00,0,weatherlink.com 1.10,2013-01-23 01:02:00,
2013-01-22 19:17:00,61.9,59.0,30.17,NE,55,1.0,-999.0,91,-99.99,,,0.00,0,weatherlink.com 1.10,2013-01-23 01:17:00,
2013-01-22 19:32:00,61.6,59.0,30.18,ENE,59,3.0,-999.0,91,-99.99,,,0.00,0,weatherlink.com 1.10,2013-01-23 01:32:00,
2013-01-22 19:47:00,61.2,59.0,30.18,NE,54,2.0,-999.0,92,-99.99,,,0.00,0,weatherlink.com 1.10,2013-01-23 01:47:00,
2013-01-22 20:02:00,61.0,59.0,30.19,ENE,61,2.0,-999.0,92,-99.99,,,0.00,0,weatherlink.com 1.10,2013-01-23 02:02:00,
2013-01-22 20:17:00,60.7,58.0,30.19,ENE,62,1.0,-999.0,92,-99.99,,,0.00,0,weatherlink.com 1.10,2013-01-23 02:17:00,
2013-01-22 20:32:00,60.5,59.0,30.19,ENE,67,0.0,-999.0,93,-99.99,,,0.00,0,weatherlink.com 1.10,2013-01-23 02:32:00,
2013-01-22 20:47:00,60.2,58.0,30.19,ENE,67,2.0,-999.0,93,-99.99,,,0.00,0,weatherlink.com 1.10,2013-01-23 02:47:00,
2013-01-22 21:02:00,59.8,58.0,30.20,NE,53,2.0,-999.0,93,-99.99,,,0.00,0,weatherlink.com 1.10,2013-01-23 03:02:00,
2013-01-22 21:17:00,59.6,58.0,30.20,NE,53,0.0,-999.0,94,-99.99,,,0.00,0,weatherlink.com 1.10,2013-01-23 03:17:00,
2013-01-22 21:32:00,59.2,57.0,30.21,NE,53,1.0,-999.0,93,-99.99,,,0.00,0,weatherlink.com 1.10,2013-01-23 03:32:00,
2013-01-22 21:47:00,59.1,57.0,30.21,NE,53,1.0,-999.0,94,-99.99,,,0.00,0,weatherlink.com 1.10,2013-01-23 03:47:00,
2013-01-22 22:02:00,58.9,57.0,30.21,NE,53,0.0,-999.0,94,-99.99,,,0.00,0,weatherlink.com 1.10,2013-01-23 04:02:00,
2013-01-22 22:17:00,58.7,57.0,30.20,NE,53,0.0,-999.0,94,-99.99,,,0.00,0,weatherlink.com 1.10,2013-01-23 04:17:00,
2013-01-22 22:32:00,58.5,57.0,30.20,ENE,61,0.0,-999.0,94,-99.99,,,0.00,0,weatherlink.com 1.10,2013-01-23 04:32:00,
2013-01-22 22:47:00,58.6,57.0,30.21,ENE,61,0.0,-999.0,95,-99.99,,,0.00,0,weatherlink.com 1.10,2013-01-23 04:47:00,
2013-01-22 23:17:00,58.3,57.0,30.20,ENE,62,0.0,-999.0,95,-99.99,,,0.00,0,weatherlink.com 1.10,2013-01-23 05:17:00,
2013-01-22 23:47:00,58.2,57.0,30.20,ENE,62,0.0,-999.0,94,-99.99,,,0.01,0,weatherlink.com 1.10,2013-01-23 05:47:00,